Location: ????? ???????
(25.7275°N, 32.5929°E)
Time: 11:54:12
(UTC+00:00)

Cosmos 2242 Rocket - Pass Details

Date: 02 March 2021
Orbit: 617 x 652 km, 82.5° (Epoch: 15 April)

Event Time Altitude Azimuth Distance (km) Brightness Sun altitude
Rises 17:11:30 0° 3° (N) 2,933 7.0 -18.7°
Reaches altitude 10° 17:13:51 10° 10° (N) 2,016 6.1 -19.2°
Enters shadow 17:17:15 39° 51° (NE) 942 4.1 -20.0°
